UAL932 KIAD-EDDF

Flight info

Callsign UAL932
Flight time N/A
Altitude 35000
Route KIAD/19C JCOBY4 SWANN DCT BROSS Q419 RBV Q430 ACK DCT WHALE N251B NICSO DCT 48N050W 49N040W 50N030W 51N020W DCT DINIM DCT ELSOX DCT ARKIL DCT OXLOW DCT KONAN DCT KOK DCT DENOX DCT REMBA DCT SPI T180 NIVNU T847 IMCOM IMCOM1A EDDF/25L
Aircraft B77W/H-V/N

Departure

Time 2026-05-06 04:52
Airport Washington Dulles International Airport (KIAD)

Arrival

Time N/A
Airport Frankfurt Main Airport (EDDF)
Time Latitude Longitude Altitude Speed Heading
2026-05-06 04:28 38.94480 -77.44445 305 ft 0 kts 14°
2026-05-06 04:40 38.94466 -77.44449 306 ft 4 kts 14°
2026-05-06 04:41 38.94441 -77.44457 304 ft 2 kts 14°
2026-05-06 04:41 38.94423 -77.44461 304 ft 4 kts 348°
2026-05-06 04:41 38.94412 -77.44457 304 ft 4 kts 298°
2026-05-06 04:41 38.94408 -77.44433 303 ft 4 kts 271°
2026-05-06 04:42 38.94407 -77.44398 304 ft 3 kts 271°
2026-05-06 04:42 38.94407 -77.44394 304 ft 0 kts 271°
2026-05-06 04:44 38.94408 -77.44420 302 ft 7 kts 271°
2026-05-06 04:44 38.94408 -77.44485 308 ft 7 kts 271°
2026-05-06 04:44 38.94409 -77.44549 305 ft 7 kts 271°
2026-05-06 04:45 38.94410 -77.44630 305 ft 12 kts 271°
2026-05-06 04:45 38.94411 -77.44754 308 ft 16 kts 271°
2026-05-06 04:45 38.94412 -77.44893 308 ft 16 kts 270°
2026-05-06 04:45 38.94413 -77.45032 308 ft 15 kts 270°
2026-05-06 04:46 38.94415 -77.45171 308 ft 15 kts 270°
2026-05-06 04:46 38.94416 -77.45308 305 ft 15 kts 270°
2026-05-06 04:46 38.94417 -77.45447 305 ft 15 kts 270°
2026-05-06 04:46 38.94418 -77.45586 305 ft 15 kts 270°
2026-05-06 04:47 38.94429 -77.45703 308 ft 11 kts 298°
2026-05-06 04:47 38.94496 -77.45728 308 ft 11 kts
2026-05-06 04:47 38.94624 -77.45724 306 ft 30 kts
2026-05-06 04:47 38.94847 -77.45721 306 ft 32 kts
2026-05-06 04:48 38.95063 -77.45718 306 ft 30 kts
2026-05-06 04:48 38.95271 -77.45714 306 ft 30 kts
2026-05-06 04:48 38.95481 -77.45711 307 ft 30 kts
2026-05-06 04:48 38.95689 -77.45708 307 ft 30 kts
2026-05-06 04:49 38.95896 -77.45706 309 ft 30 kts
2026-05-06 04:49 38.96105 -77.45703 306 ft 30 kts
2026-05-06 04:49 38.96314 -77.45699 306 ft 30 kts
2026-05-06 04:49 38.96523 -77.45696 306 ft 30 kts
2026-05-06 04:50 38.96729 -77.45692 306 ft 30 kts
2026-05-06 04:50 38.96919 -77.45690 306 ft 22 kts
2026-05-06 04:50 38.97009 -77.45710 308 ft 12 kts 311°
2026-05-06 04:50 38.97017 -77.45816 310 ft 12 kts 271°
2026-05-06 04:51 38.97019 -77.45908 311 ft 7 kts 267°
2026-05-06 04:51 38.96983 -77.45936 310 ft 7 kts 178°
2026-05-06 04:51 38.96888 -77.45936 308 ft 27 kts 181°
2026-05-06 04:51 38.96464 -77.45942 305 ft 96 kts 180°
2026-05-06 04:52 38.95602 -77.45953 310 ft 153 kts 180°
2026-05-06 04:52 38.94419 -77.45967 598 ft 170 kts 180°
2026-05-06 04:52 38.93244 -77.46038 1201 ft 170 kts 198°
2026-05-06 04:52 38.92357 -77.46947 1692 ft 169 kts 241°
2026-05-06 04:53 38.92084 -77.48395 2216 ft 172 kts 262°
2026-05-06 04:53 38.92358 -77.49996 2390 ft 199 kts 291°
2026-05-06 04:53 38.93062 -77.51534 2763 ft 205 kts 294°
2026-05-06 04:53 38.93868 -77.53171 2923 ft 228 kts 300°
2026-05-06 04:54 38.95154 -77.54559 3155 ft 260 kts 331°
2026-05-06 04:54 38.96970 -77.55005 3719 ft 277 kts 356°
2026-05-06 04:54 38.98913 -77.54739 4328 ft 287 kts 13°
2026-05-06 04:54 39.00647 -77.53389 4981 ft 297 kts 45°
2026-05-06 04:55 39.01950 -77.51336 5682 ft 298 kts 50°
2026-05-06 04:55 39.03253 -77.49230 6467 ft 299 kts 49°
2026-05-06 04:55 39.04565 -77.47190 7173 ft 301 kts 47°
2026-05-06 04:55 39.05932 -77.45128 7911 ft 302 kts 46°
2026-05-06 04:56 39.07314 -77.43085 8631 ft 303 kts 46°
2026-05-06 04:56 39.08717 -77.41037 9333 ft 306 kts 45°
2026-05-06 04:56 39.10141 -77.38975 10033 ft 308 kts 45°
2026-05-06 04:56 39.11568 -77.36918 10488 ft 319 kts 45°
2026-05-06 04:57 39.13107 -77.34704 10662 ft 342 kts 45°
2026-05-06 04:57 39.14492 -77.32094 10773 ft 366 kts 67°
2026-05-06 04:57 39.15089 -77.28809 10975 ft 389 kts 84°
2026-05-06 04:57 39.15077 -77.25300 11433 ft 402 kts 98°
2026-05-06 04:58 39.14506 -77.21729 12127 ft 409 kts 105°
2026-05-06 04:58 39.13830 -77.18144 12920 ft 415 kts 104°
2026-05-06 04:58 39.13169 -77.14480 13756 ft 421 kts 103°
2026-05-06 04:58 39.12577 -77.10797 14524 ft 426 kts 102°
2026-05-06 04:59 39.11991 -77.07029 15366 ft 429 kts 102°
2026-05-06 04:59 39.11395 -77.03250 16192 ft 431 kts 103°
2026-05-06 04:59 39.10905 -76.99462 17004 ft 435 kts 97°
2026-05-06 04:59 39.10712 -76.95539 17821 ft 439 kts 90°
2026-05-06 05:00 39.10804 -76.91584 18571 ft 443 kts 88°
2026-05-06 05:00 39.10934 -76.87590 19272 ft 446 kts 88°
2026-05-06 05:00 39.11063 -76.83581 19994 ft 448 kts 88°
2026-05-06 05:00 39.11182 -76.79600 20716 ft 451 kts 88°
2026-05-06 05:01 39.11291 -76.75544 21411 ft 454 kts 89°
2026-05-06 05:01 39.11393 -76.71445 22075 ft 457 kts 89°
2026-05-06 05:01 39.11490 -76.67365 22690 ft 460 kts 89°
2026-05-06 05:01 39.11586 -76.63227 23329 ft 463 kts 89°
2026-05-06 05:02 39.11683 -76.59083 24069 ft 462 kts 89°
2026-05-06 05:02 39.11777 -76.54970 24490 ft 468 kts 89°
2026-05-06 05:02 39.11957 -76.50757 24896 ft 474 kts 84°
2026-05-06 05:02 39.12412 -76.46517 25372 ft 477 kts 81°
2026-05-06 05:03 39.12917 -76.42317 25890 ft 479 kts 81°
2026-05-06 05:03 39.13428 -76.38066 26394 ft 482 kts 81°
2026-05-06 05:03 39.13928 -76.33773 26885 ft 485 kts 82°
2026-05-06 05:03 39.14414 -76.29484 27323 ft 488 kts 82°
2026-05-06 05:04 39.14741 -76.26554 27605 ft 490 kts 82°
2026-05-06 05:04 39.15222 -76.22232 28021 ft 493 kts 82°
2026-05-06 05:04 39.15723 -76.17818 28444 ft 496 kts 81°
2026-05-06 05:04 39.16226 -76.13454 28855 ft 498 kts 81°
2026-05-06 05:05 39.16739 -76.09018 29239 ft 500 kts 81°
2026-05-06 05:05 39.17250 -76.04575 29698 ft 500 kts 81°
2026-05-06 05:05 39.17757 -76.00135 30231 ft 498 kts 81°
2026-05-06 05:05 39.18251 -75.95788 30702 ft 495 kts 81°
2026-05-06 05:06 39.19024 -75.91466 30970 ft 495 kts 69°
2026-05-06 05:06 39.20555 -75.87480 31273 ft 494 kts 56°
2026-05-06 05:06 39.22632 -75.84038 31745 ft 489 kts 44°
2026-05-06 05:06 39.25188 -75.81137 32110 ft 485 kts 37°
2026-05-06 05:07 39.27811 -75.78388 32400 ft 487 kts 37°
2026-05-06 05:07 39.30425 -75.75636 32764 ft 486 kts 37°
2026-05-06 05:07 39.33027 -75.72850 33196 ft 485 kts 38°
2026-05-06 05:07 39.35615 -75.70036 33603 ft 483 kts 38°
2026-05-06 05:08 39.38161 -75.67242 33963 ft 482 kts 38°
2026-05-06 05:08 39.40718 -75.64429 34241 ft 483 kts 38°
2026-05-06 05:08 39.43257 -75.61639 34476 ft 483 kts 38°
2026-05-06 05:08 39.45825 -75.58815 34714 ft 484 kts 37°
2026-05-06 05:09 39.48401 -75.55978 34861 ft 487 kts 37°
2026-05-06 05:09 39.53553 -75.50294 34927 ft 488 kts 37°
2026-05-06 05:10 39.58686 -75.44616 34922 ft 482 kts 37°
2026-05-06 05:10 39.63807 -75.38946 34936 ft 481 kts 37°
2026-05-06 05:11 39.68870 -75.33328 34936 ft 481 kts 37°
2026-05-06 05:11 39.73962 -75.27664 34949 ft 482 kts 37°
2026-05-06 05:12 39.79025 -75.21947 34945 ft 484 kts 40°
2026-05-06 05:12 39.83580 -75.15456 34951 ft 487 kts 46°
2026-05-06 05:13 39.88002 -75.08743 34942 ft 488 kts 46°
2026-05-06 05:13 39.92456 -75.02081 34945 ft 489 kts 46°
2026-05-06 05:14 39.96913 -74.95367 34939 ft 490 kts 49°
2026-05-06 05:14 40.00786 -74.88071 34955 ft 492 kts 54°
2026-05-06 05:15 40.04536 -74.80556 34939 ft 492 kts 54°
2026-05-06 05:15 40.08287 -74.73116 34943 ft 492 kts 53°
2026-05-06 05:16 40.12075 -74.65654 34936 ft 491 kts 53°
2026-05-06 05:16 40.15830 -74.58244 34941 ft 491 kts 53°
2026-05-06 05:17 40.19503 -74.50685 34937 ft 493 kts 59°
2026-05-06 05:17 40.22221 -74.42467 34946 ft 496 kts 69°
2026-05-06 05:18 40.24421 -74.33865 34947 ft 497 kts 69°
2026-05-06 05:18 40.26613 -74.25315 34960 ft 497 kts 69°
2026-05-06 05:19 40.28849 -74.16751 34957 ft 498 kts 69°
2026-05-06 05:19 40.31099 -74.08145 34963 ft 498 kts 69°
2026-05-06 05:20 40.33324 -73.99593 34953 ft 498 kts 69°
2026-05-06 05:20 40.35533 -73.91070 34960 ft 498 kts 69°
2026-05-06 05:21 40.37764 -73.82446 34948 ft 498 kts 69°
2026-05-06 05:21 40.39973 -73.73881 34954 ft 498 kts 69°
2026-05-06 05:22 40.42191 -73.65247 34955 ft 498 kts 69°
2026-05-06 05:22 40.44404 -73.56605 34962 ft 499 kts 69°
2026-05-06 05:23 40.46596 -73.48008 34961 ft 499 kts 69°
2026-05-06 05:23 40.49876 -73.35067 34952 ft 499 kts 69°
2026-05-06 05:24 40.52063 -73.26403 34958 ft 499 kts 69°
2026-05-06 05:24 40.54248 -73.17718 34955 ft 499 kts 69°
2026-05-06 05:25 40.56417 -73.09061 34969 ft 500 kts 69°
2026-05-06 05:25 40.58582 -73.00391 34964 ft 500 kts 69°
2026-05-06 05:26 40.60750 -72.91675 34986 ft 500 kts 69°
2026-05-06 05:26 40.62899 -72.83005 34978 ft 501 kts 69°
2026-05-06 05:27 40.65060 -72.74255 34987 ft 501 kts 70°
2026-05-06 05:27 40.67215 -72.65499 34991 ft 502 kts 70°
2026-05-06 05:28 40.69353 -72.56777 34999 ft 502 kts 70°
2026-05-06 05:28 40.71496 -72.47997 34995 ft 503 kts 70°
2026-05-06 05:29 40.73628 -72.39230 35003 ft 503 kts 70°
2026-05-06 05:29 40.75760 -72.30429 34994 ft 503 kts 70°
2026-05-06 05:30 40.77878 -72.21658 35000 ft 503 kts 70°
2026-05-06 05:30 40.80109 -72.12881 35001 ft 503 kts 68°
2026-05-06 05:31 40.82436 -72.04204 35005 ft 503 kts 68°
2026-05-06 05:31 40.84765 -71.95438 34997 ft 503 kts 68°
2026-05-06 05:32 40.87048 -71.86723 35004 ft 504 kts 69°
2026-05-06 05:32 40.89333 -71.77950 34996 ft 504 kts 69°
2026-05-06 05:33 40.91601 -71.69219 35000 ft 504 kts 69°
2026-05-06 05:33 40.93881 -71.60433 34991 ft 504 kts 68°
2026-05-06 05:34 40.95024 -71.56100 34779 ft 504 kts 69°
2026-05-06 05:34 40.96195 -71.51688 34862 ft 507 kts 69°
2026-05-06 05:34 40.98532 -71.42848 34999 ft 514 kts 69°
2026-05-06 05:35 41.00851 -71.33842 35001 ft 517 kts 71°
2026-05-06 05:35 41.02831 -71.24657 35014 ft 517 kts 73°
2026-05-06 05:36 41.04741 -71.15515 35016 ft 516 kts 73°
2026-05-06 05:36 41.06691 -71.06359 35022 ft 514 kts 72°
2026-05-06 05:37 41.08620 -70.97268 35024 ft 511 kts 73°
2026-05-06 05:37 41.10525 -70.88244 35024 ft 509 kts 73°
2026-05-06 05:38 41.12417 -70.79240 35024 ft 507 kts 73°
2026-05-06 05:38 41.14306 -70.70217 35026 ft 506 kts 73°
2026-05-06 05:39 41.16185 -70.61203 35031 ft 505 kts 73°
2026-05-06 05:39 41.18055 -70.52193 35028 ft 505 kts 73°
2026-05-06 05:40 41.19906 -70.43234 35032 ft 505 kts 73°
2026-05-06 05:40 41.21754 -70.34251 35043 ft 505 kts 73°
2026-05-06 05:41 41.23597 -70.25257 35046 ft 505 kts 73°
2026-05-06 05:41 41.25439 -70.16224 35046 ft 505 kts 73°
2026-05-06 05:42 41.27266 -70.07234 35047 ft 505 kts 73°
2026-05-06 05:42 41.29449 -69.98370 35049 ft 502 kts 65°
2026-05-06 05:43 41.32192 -69.89864 35051 ft 502 kts 64°
2026-05-06 05:43 41.34969 -69.81339 35046 ft 502 kts 64°
2026-05-06 05:44 41.37712 -69.72775 35050 ft 501 kts 65°
2026-05-06 05:44 41.40404 -69.64268 35048 ft 501 kts 65°
2026-05-06 05:45 41.43109 -69.55673 35052 ft 501 kts 65°
2026-05-06 05:45 41.45788 -69.47138 35056 ft 500 kts 65°
2026-05-06 05:46 41.48477 -69.38549 35058 ft 500 kts 65°
2026-05-06 05:46 41.51141 -69.30016 35061 ft 499 kts 65°
2026-05-06 05:47 41.53790 -69.21503 35064 ft 498 kts 65°
2026-05-06 05:47 41.56445 -69.12943 35067 ft 497 kts 65°
2026-05-06 05:48 41.59089 -69.04391 35069 ft 497 kts 65°
2026-05-06 05:48 41.61708 -68.95896 35074 ft 496 kts 65°
2026-05-06 05:49 41.64332 -68.87353 35074 ft 495 kts 65°
2026-05-06 05:49 41.66935 -68.78852 35082 ft 495 kts 66°
2026-05-06 05:50 41.69532 -68.70343 35083 ft 494 kts 66°
2026-05-06 05:50 41.72131 -68.61800 35084 ft 494 kts 66°
2026-05-06 05:51 41.74272 -68.54743 35089 ft 493 kts 66°
2026-05-06 05:51 41.77273 -68.44819 35094 ft 493 kts 66°
2026-05-06 05:52 41.79414 -68.37715 35088 ft 493 kts 66°
2026-05-06 05:52 41.81981 -68.29170 35095 ft 493 kts 66°
2026-05-06 05:53 41.84528 -68.20668 35100 ft 493 kts 66°
2026-05-06 05:53 41.87074 -68.12140 35098 ft 494 kts 66°
2026-05-06 05:54 41.89628 -68.03557 35102 ft 494 kts 66°
2026-05-06 05:54 41.92177 -67.94962 35101 ft 495 kts 66°
2026-05-06 05:55 41.94709 -67.86395 35103 ft 495 kts 66°
2026-05-06 05:55 41.97242 -67.77797 35107 ft 496 kts 66°
2026-05-06 05:56 41.99783 -67.69144 35109 ft 497 kts 67°
2026-05-06 05:56 42.02304 -67.60528 35108 ft 497 kts 67°
2026-05-06 05:57 42.04834 -67.51852 35108 ft 498 kts 67°
2026-05-06 05:57 42.07360 -67.43162 35112 ft 498 kts 67°
2026-05-06 05:58 42.09867 -67.34509 35114 ft 498 kts 67°
2026-05-06 05:58 42.12388 -67.25776 35113 ft 499 kts 67°
2026-05-06 05:59 42.14883 -67.17104 35114 ft 499 kts 68°
2026-05-06 05:59 42.17393 -67.08352 35118 ft 500 kts 68°
2026-05-06 06:00 42.20003 -66.99689 35121 ft 499 kts 63°
2026-05-06 06:00 42.23470 -66.91624 35131 ft 497 kts 56°
2026-05-06 06:01 42.27140 -66.83721 35122 ft 498 kts 56°
2026-05-06 06:01 42.30814 -66.75744 35117 ft 499 kts 56°
2026-05-06 06:02 42.34452 -66.67739 35125 ft 500 kts 57°
2026-05-06 06:02 42.38067 -66.59727 35129 ft 501 kts 57°
2026-05-06 06:03 42.41698 -66.51655 35126 ft 501 kts 57°
2026-05-06 06:03 42.45303 -66.43624 35122 ft 501 kts 57°
2026-05-06 06:04 42.48933 -66.35517 35122 ft 501 kts 57°
2026-05-06 06:04 42.52527 -66.27471 35123 ft 501 kts 57°
2026-05-06 06:05 42.56113 -66.19421 35123 ft 501 kts 57°
2026-05-06 06:05 42.59716 -66.11310 35126 ft 500 kts 57°
2026-05-06 06:06 42.63308 -66.03202 35125 ft 500 kts 57°
2026-05-06 06:06 42.66869 -65.95139 35133 ft 500 kts 57°
2026-05-06 06:07 42.70447 -65.87018 35137 ft 499 kts 57°
2026-05-06 06:07 42.74002 -65.78928 35125 ft 499 kts 58°
2026-05-06 06:08 42.77569 -65.70785 35127 ft 499 kts 58°
2026-05-06 06:08 42.81105 -65.62693 35127 ft 499 kts 58°
2026-05-06 06:09 42.84640 -65.54580 35143 ft 499 kts 58°
2026-05-06 06:09 42.88192 -65.46405 35131 ft 499 kts 58°
2026-05-06 06:10 42.91715 -65.38275 35135 ft 499 kts 58°
2026-05-06 06:10 42.95253 -65.30089 35133 ft 499 kts 58°
2026-05-06 06:11 42.98776 -65.21912 35135 ft 500 kts 58°
2026-05-06 06:11 43.02285 -65.13746 35140 ft 500 kts 58°
2026-05-06 06:12 43.05788 -65.05572 35135 ft 500 kts 58°
2026-05-06 06:12 43.09303 -64.97344 35135 ft 500 kts 58°
2026-05-06 06:13 43.12816 -64.89100 35145 ft 500 kts 58°
2026-05-06 06:13 43.16303 -64.80892 35135 ft 500 kts 58°
2026-05-06 06:14 43.19810 -64.72616 35134 ft 500 kts 58°
2026-05-06 06:14 43.23282 -64.64397 35138 ft 500 kts 58°
2026-05-06 06:15 43.26756 -64.56152 35140 ft 500 kts 59°
2026-05-06 06:15 43.30230 -64.47881 35140 ft 500 kts 59°
2026-05-06 06:16 43.33707 -64.39581 35142 ft 500 kts 59°
2026-05-06 06:16 43.37165 -64.31301 35143 ft 500 kts 59°
2026-05-06 06:17 43.40612 -64.23026 35137 ft 500 kts 59°
2026-05-06 06:17 43.44070 -64.14699 35141 ft 500 kts 59°
2026-05-06 06:18 43.47496 -64.06424 35146 ft 500 kts 59°
2026-05-06 06:18 43.50945 -63.98072 35145 ft 500 kts 59°
2026-05-06 06:19 43.54373 -63.89744 35148 ft 500 kts 59°
2026-05-06 06:19 43.57803 -63.81388 35145 ft 500 kts 59°
2026-05-06 06:20 43.61202 -63.73084 35149 ft 500 kts 59°
2026-05-06 06:20 43.64621 -63.64708 35152 ft 499 kts 60°
2026-05-06 06:21 43.68011 -63.56377 35150 ft 499 kts 60°
2026-05-06 06:21 43.71425 -63.47963 35150 ft 499 kts 60°
2026-05-06 06:22 43.74809 -63.39599 35151 ft 499 kts 60°
2026-05-06 06:22 43.78176 -63.31250 35151 ft 499 kts 60°
2026-05-06 06:23 43.81555 -63.22850 35152 ft 499 kts 60°
2026-05-06 06:23 43.84933 -63.14426 35152 ft 499 kts 60°
2026-05-06 06:24 43.88280 -63.06055 35152 ft 498 kts 60°
2026-05-06 06:24 43.91644 -62.97615 35155 ft 498 kts 60°
2026-05-06 06:25 43.94981 -62.89220 35153 ft 498 kts 60°
2026-05-06 06:26 43.99984 -62.76584 35153 ft 498 kts 60°
2026-05-06 06:26 44.03319 -62.68130 35158 ft 498 kts 61°
2026-05-06 06:27 44.06643 -62.59680 35157 ft 497 kts 61°
2026-05-06 06:27 44.09945 -62.51260 35160 ft 497 kts 61°
2026-05-06 06:28 44.13241 -62.42829 35156 ft 497 kts 61°
2026-05-06 06:28 44.16547 -62.34346 35156 ft 497 kts 61°
2026-05-06 06:29 44.19849 -62.25850 35159 ft 497 kts 61°
2026-05-06 06:29 44.23130 -62.17382 35160 ft 497 kts 61°
2026-05-06 06:30 44.26396 -62.08928 35161 ft 497 kts 61°
2026-05-06 06:30 44.29680 -62.00399 35163 ft 497 kts 61°
2026-05-06 06:31 44.32957 -61.91864 35159 ft 498 kts 62°
2026-05-06 06:31 44.36205 -61.83378 35163 ft 498 kts 62°
2026-05-06 06:32 44.39472 -61.74819 35163 ft 498 kts 62°
2026-05-06 06:32 44.42735 -61.66241 35162 ft 498 kts 62°
2026-05-06 06:33 44.45972 -61.57707 35165 ft 499 kts 62°
2026-05-06 06:33 44.49226 -61.49098 35163 ft 498 kts 62°
2026-05-06 06:34 44.52444 -61.40562 35163 ft 498 kts 62°
2026-05-06 06:34 44.55681 -61.31946 35163 ft 499 kts 62°
2026-05-06 06:35 44.58898 -61.23359 35167 ft 499 kts 62°
2026-05-06 06:35 44.62128 -61.14709 35168 ft 499 kts 62°
2026-05-06 06:36 44.65343 -61.06072 35167 ft 499 kts 63°
2026-05-06 06:36 44.68541 -60.97456 35170 ft 499 kts 63°
2026-05-06 06:37 44.71750 -60.88781 35170 ft 499 kts 63°
2026-05-06 06:37 44.74927 -60.80163 35165 ft 499 kts 63°
2026-05-06 06:38 44.78128 -60.71456 35165 ft 499 kts 63°
2026-05-06 06:38 44.81299 -60.62804 35172 ft 499 kts 63°
2026-05-06 06:39 44.84463 -60.54141 35175 ft 499 kts 63°
2026-05-06 06:39 44.87127 -60.46828 35171 ft 499 kts 63°
2026-05-06 06:40 44.90281 -60.38142 35175 ft 499 kts 63°
2026-05-06 06:40 44.93446 -60.29397 35173 ft 499 kts 63°
2026-05-06 06:41 44.96601 -60.20654 35176 ft 499 kts 63°
2026-05-06 06:41 44.99734 -60.11944 35176 ft 499 kts 63°
2026-05-06 06:42 45.02881 -60.03164 35176 ft 499 kts 63°
2026-05-06 06:42 45.06009 -59.94414 35176 ft 499 kts 64°
2026-05-06 06:43 45.09126 -59.85662 35180 ft 500 kts 64°
2026-05-06 06:43 45.12236 -59.76902 35178 ft 500 kts 64°
2026-05-06 06:44 45.15359 -59.68079 35178 ft 500 kts 64°
2026-05-06 06:44 45.18475 -59.59243 35180 ft 500 kts 64°
2026-05-06 06:45 45.21569 -59.50444 35177 ft 501 kts 64°
2026-05-06 06:45 45.24663 -59.41616 35182 ft 501 kts 64°
2026-05-06 06:46 45.27772 -59.32713 35180 ft 501 kts 64°
2026-05-06 06:46 45.30850 -59.23871 35180 ft 502 kts 64°
2026-05-06 06:47 45.33931 -59.14993 35175 ft 502 kts 64°
2026-05-06 06:47 45.37027 -59.06041 35179 ft 502 kts 64°
2026-05-06 06:48 45.40093 -58.97144 35178 ft 502 kts 64°
2026-05-06 06:48 45.43166 -58.88198 35177 ft 502 kts 64°
2026-05-06 06:49 45.46212 -58.79300 35183 ft 502 kts 64°
2026-05-06 06:49 45.49270 -58.70341 35180 ft 502 kts 64°
2026-05-06 06:50 45.52299 -58.61432 35184 ft 502 kts 64°
2026-05-06 06:50 45.55350 -58.52432 35182 ft 502 kts 64°
2026-05-06 06:51 45.58368 -58.43496 35185 ft 502 kts 64°
2026-05-06 06:51 45.61394 -58.34505 35183 ft 502 kts 64°
2026-05-06 06:52 45.64420 -58.25486 35186 ft 503 kts 64°
2026-05-06 06:52 45.67427 -58.16491 35187 ft 503 kts 65°
2026-05-06 06:53 45.70424 -58.07496 35197 ft 503 kts 65°
2026-05-06 06:53 45.73435 -57.98430 35192 ft 504 kts 65°
2026-05-06 06:54 45.76432 -57.89371 35194 ft 504 kts 65°
2026-05-06 06:54 45.79428 -57.80285 35193 ft 504 kts 65°
2026-05-06 06:55 45.82404 -57.71229 35194 ft 504 kts 65°
2026-05-06 06:55 45.85390 -57.62111 35193 ft 504 kts 65°
2026-05-06 06:56 45.88364 -57.52997 35199 ft 504 kts 65°
2026-05-06 06:56 45.91320 -57.43905 35197 ft 504 kts 65°
2026-05-06 06:57 45.94276 -57.34782 35197 ft 504 kts 65°
2026-05-06 06:57 45.97235 -57.25619 35200 ft 503 kts 65°
2026-05-06 06:58 46.00162 -57.16522 35198 ft 503 kts 65°
2026-05-06 06:58 46.03100 -57.07360 35197 ft 503 kts 65°
2026-05-06 06:59 46.06015 -56.98234 35203 ft 503 kts 65°
2026-05-06 06:59 46.08933 -56.89066 35197 ft 502 kts 65°
2026-05-06 07:00 46.11829 -56.79939 35201 ft 502 kts 65°
2026-05-06 07:00 46.14735 -56.70744 35207 ft 502 kts 65°
2026-05-06 07:01 46.17609 -56.61620 35201 ft 502 kts 65°
2026-05-06 07:01 46.20499 -56.52411 35204 ft 502 kts 65°
2026-05-06 07:02 46.23368 -56.43233 35199 ft 502 kts 65°
2026-05-06 07:02 46.26242 -56.34011 35207 ft 502 kts 65°
2026-05-06 07:03 46.29092 -56.24830 35212 ft 502 kts 65°
2026-05-06 07:03 46.31940 -56.15621 35207 ft 502 kts 65°
2026-05-06 07:04 46.34788 -56.06381 35208 ft 502 kts 65°
2026-05-06 07:04 46.37614 -55.97177 35206 ft 502 kts 65°
2026-05-06 07:05 46.40450 -55.87907 35211 ft 502 kts 65°
2026-05-06 07:05 46.43258 -55.78695 35208 ft 501 kts 65°
2026-05-06 07:06 46.46075 -55.69418 35210 ft 501 kts 65°
2026-05-06 07:06 46.48865 -55.60196 35214 ft 501 kts 65°
2026-05-06 07:07 46.51663 -55.50917 35212 ft 501 kts 65°
2026-05-06 07:07 46.54432 -55.41696 35214 ft 501 kts 65°
2026-05-06 07:08 46.57224 -55.32365 35220 ft 501 kts 65°
2026-05-06 07:08 46.59982 -55.23114 35216 ft 501 kts 65°
2026-05-06 07:09 46.62738 -55.13835 35218 ft 502 kts 65°
2026-05-06 07:09 46.65506 -55.04483 35224 ft 503 kts 65°
2026-05-06 07:10 46.68257 -54.95149 35224 ft 503 kts 65°
2026-05-06 07:10 46.71022 -54.85733 35219 ft 504 kts 65°
2026-05-06 07:11 46.73766 -54.76355 35229 ft 505 kts 65°
2026-05-06 07:11 46.76522 -54.66897 35226 ft 505 kts 65°
2026-05-06 07:12 46.79268 -54.57438 35228 ft 506 kts 65°
2026-05-06 07:12 46.81991 -54.48020 35226 ft 506 kts 65°
2026-05-06 07:13 46.84724 -54.38532 35224 ft 506 kts 65°
2026-05-06 07:13 46.87433 -54.29091 35231 ft 506 kts 65°
2026-05-06 07:14 46.90154 -54.19572 35232 ft 505 kts 65°
2026-05-06 07:14 46.92839 -54.10143 35230 ft 505 kts 65°
2026-05-06 07:15 46.95541 -54.00615 35233 ft 504 kts 65°
2026-05-06 07:15 46.98222 -53.91126 35235 ft 504 kts 65°
2026-05-06 07:16 47.00876 -53.81694 35238 ft 503 kts 65°
2026-05-06 07:16 47.03540 -53.72188 35244 ft 502 kts 65°
2026-05-06 07:17 47.06178 -53.62739 35246 ft 502 kts 65°
2026-05-06 07:17 47.08820 -53.53240 35238 ft 502 kts 65°
2026-05-06 07:18 47.11437 -53.43792 35241 ft 502 kts 65°
2026-05-06 07:18 47.14053 -53.34310 35240 ft 502 kts 65°
2026-05-06 07:19 47.16671 -53.24783 35237 ft 502 kts 65°
2026-05-06 07:19 47.19274 -53.15273 35238 ft 503 kts 65°
2026-05-06 07:20 47.21886 -53.05693 35231 ft 503 kts 65°
2026-05-06 07:20 47.24475 -52.96155 35222 ft 504 kts 65°
2026-05-06 07:21 47.27055 -52.86617 35220 ft 504 kts 65°
2026-05-06 07:21 47.29642 -52.77007 35213 ft 504 kts 65°
2026-05-06 07:22 47.32217 -52.67410 35207 ft 505 kts 65°
2026-05-06 07:22 47.34790 -52.57774 35192 ft 505 kts 65°
2026-05-06 07:23 47.37358 -52.48122 35195 ft 505 kts 65°
2026-05-06 07:23 47.39918 -52.38456 35212 ft 505 kts 65°
2026-05-06 07:24 47.42454 -52.28845 35217 ft 504 kts 65°
2026-05-06 07:24 47.44998 -52.19162 35207 ft 504 kts 65°
2026-05-06 07:25 47.47516 -52.09535 35214 ft 503 kts 65°
2026-05-06 07:25 47.50037 -51.99867 35210 ft 503 kts 65°
2026-05-06 07:26 47.52547 -51.90222 35426 ft 505 kts 65°
2026-05-06 07:26 47.53807 -51.85375 35802 ft 503 kts 65°
2026-05-06 07:26 47.55055 -51.80560 36182 ft 500 kts 65°
2026-05-06 07:27 47.57538 -51.70959 36214 ft 500 kts 65°
2026-05-06 07:27 47.60012 -51.61341 36212 ft 498 kts 65°
2026-05-06 07:28 47.62459 -51.51795 36214 ft 497 kts 65°
2026-05-06 07:28 47.66139 -51.37361 36217 ft 497 kts 65°
2026-05-06 07:29 47.68567 -51.27789 36216 ft 497 kts 65°
2026-05-06 07:29 47.70983 -51.18223 36214 ft 497 kts 65°
2026-05-06 07:30 47.73017 -51.10135 36214 ft 498 kts 65°
2026-05-06 07:30 47.75814 -50.98967 36212 ft 498 kts 65°
2026-05-06 07:31 47.77827 -50.90896 36216 ft 498 kts 65°
2026-05-06 07:31 47.80235 -50.81202 36215 ft 498 kts 65°
2026-05-06 07:32 47.82621 -50.71556 36212 ft 499 kts 65°
2026-05-06 07:32 47.85000 -50.61896 36209 ft 499 kts 65°
2026-05-06 07:33 47.87387 -50.52163 36216 ft 499 kts 65°
2026-05-06 07:33 47.89747 -50.42496 36213 ft 499 kts 65°
2026-05-06 07:34 47.92116 -50.32750 36214 ft 499 kts 65°
2026-05-06 07:34 47.94464 -50.23048 36209 ft 499 kts 65°
2026-05-06 07:35 47.96815 -50.13289 36207 ft 499 kts 65°
2026-05-06 07:35 47.99145 -50.03584 36213 ft 499 kts 65°
2026-05-06 07:36 48.01050 -49.93570 36209 ft 503 kts 73°
2026-05-06 07:36 48.02492 -49.83367 36215 ft 504 kts 74°
2026-05-06 07:37 48.03910 -49.73104 36204 ft 504 kts 74°
2026-05-06 07:37 48.05347 -49.62892 36211 ft 503 kts 73°
2026-05-06 07:38 48.06801 -49.52644 36216 ft 503 kts 73°
2026-05-06 07:38 48.08245 -49.42429 36213 ft 503 kts 73°
2026-05-06 07:39 48.09686 -49.32153 36220 ft 504 kts 73°
2026-05-06 07:39 48.11107 -49.21945 36216 ft 504 kts 73°
2026-05-06 07:40 48.12531 -49.11631 36218 ft 504 kts 74°
2026-05-06 07:40 48.13935 -49.01400 36219 ft 504 kts 74°
2026-05-06 07:41 48.15340 -48.91080 36219 ft 504 kts 74°
2026-05-06 07:41 48.16725 -48.80844 36218 ft 504 kts 74°
2026-05-06 07:42 48.18109 -48.70529 36220 ft 504 kts 74°
2026-05-06 07:42 48.19483 -48.60223 36221 ft 504 kts 74°
2026-05-06 07:43 48.20842 -48.49955 36222 ft 504 kts 74°
2026-05-06 07:43 48.22199 -48.39625 36223 ft 503 kts 74°
2026-05-06 07:44 48.23538 -48.29360 36224 ft 503 kts 74°
2026-05-06 07:44 48.24880 -48.18997 36219 ft 503 kts 74°
2026-05-06 07:45 48.26197 -48.08751 36227 ft 503 kts 74°
2026-05-06 07:45 48.27513 -47.98427 36225 ft 503 kts 74°
2026-05-06 07:46 48.28823 -47.88087 36229 ft 502 kts 75°
2026-05-06 07:46 48.30111 -47.77833 36226 ft 502 kts 75°
2026-05-06 07:47 48.31400 -47.67489 36228 ft 502 kts 75°
2026-05-06 07:47 48.32672 -47.57212 36229 ft 502 kts 75°
2026-05-06 07:48 48.33936 -47.46913 36229 ft 502 kts 75°
2026-05-06 07:48 48.35194 -47.36583 36225 ft 502 kts 75°
2026-05-06 07:49 48.36444 -47.26237 36228 ft 501 kts 75°
2026-05-06 07:49 48.37673 -47.15984 36229 ft 501 kts 75°
2026-05-06 07:50 48.38903 -47.05639 36232 ft 501 kts 75°
2026-05-06 07:50 48.40117 -46.95355 36230 ft 501 kts 75°
2026-05-06 07:51 48.41327 -46.85020 36234 ft 501 kts 75°
2026-05-06 07:51 48.42529 -46.74664 36228 ft 501 kts 75°
2026-05-06 07:52 48.43716 -46.64355 36232 ft 501 kts 76°
2026-05-06 07:52 48.44894 -46.54040 36236 ft 501 kts 76°
2026-05-06 07:53 48.46069 -46.43668 36232 ft 501 kts 76°
2026-05-06 07:53 48.47226 -46.33367 36231 ft 501 kts 76°
2026-05-06 07:54 48.48382 -46.22985 36231 ft 502 kts 76°
2026-05-06 07:54 48.49524 -46.12639 36231 ft 502 kts 76°
2026-05-06 07:55 48.50665 -46.02215 36233 ft 502 kts 76°
2026-05-06 07:55 48.51792 -45.91834 36235 ft 503 kts 76°
2026-05-06 07:56 48.52916 -45.81385 36233 ft 503 kts 76°
2026-05-06 07:56 48.54023 -45.70996 36231 ft 504 kts 76°
2026-05-06 07:57 48.55131 -45.60513 36234 ft 504 kts 76°
2026-05-06 07:57 48.56222 -45.50087 36231 ft 505 kts 76°
2026-05-06 07:58 48.57304 -45.39665 36236 ft 505 kts 76°
2026-05-06 07:58 48.58383 -45.29166 36234 ft 505 kts 76°
2026-05-06 07:59 48.59449 -45.18705 36236 ft 505 kts 76°
2026-05-06 07:59 48.60511 -45.08180 36232 ft 506 kts 76°
2026-05-06 08:00 48.61557 -44.97713 36236 ft 506 kts 76°
2026-05-06 08:00 48.62602 -44.87160 36234 ft 506 kts 76°
2026-05-06 08:01 48.63637 -44.76606 36228 ft 507 kts 76°
2026-05-06 08:01 48.64658 -44.66094 36226 ft 507 kts 76°
2026-05-06 08:02 48.65669 -44.55578 36234 ft 508 kts 77°
2026-05-06 08:02 48.66680 -44.44961 36241 ft 508 kts 77°
2026-05-06 08:03 48.67675 -44.34406 36234 ft 509 kts 77°
2026-05-06 08:03 48.68668 -44.23755 36233 ft 510 kts 77°
2026-05-06 08:04 48.69646 -44.13167 36232 ft 510 kts 77°
2026-05-06 08:04 48.70619 -44.02514 36230 ft 510 kts 77°
2026-05-06 08:05 48.71577 -43.91915 36226 ft 510 kts 77°
2026-05-06 08:05 48.72534 -43.81222 36226 ft 509 kts 77°
2026-05-06 08:06 48.73470 -43.70644 36233 ft 509 kts 77°
2026-05-06 08:06 48.74403 -43.59987 36225 ft 508 kts 77°
2026-05-06 08:07 48.75317 -43.49431 36229 ft 508 kts 77°
2026-05-06 08:07 48.76228 -43.38796 36225 ft 507 kts 77°
2026-05-06 08:08 48.77122 -43.28245 36225 ft 507 kts 77°
2026-05-06 08:08 48.78013 -43.17608 36232 ft 506 kts 77°
2026-05-06 08:09 48.78887 -43.07055 36232 ft 506 kts 77°
2026-05-06 08:09 48.79757 -42.96436 36230 ft 506 kts 77°
2026-05-06 08:10 48.80615 -42.85836 36230 ft 505 kts 77°
2026-05-06 08:10 48.81458 -42.75291 36227 ft 505 kts 78°
2026-05-06 08:11 48.82297 -42.64686 36226 ft 505 kts 78°
2026-05-06 08:11 48.83123 -42.54110 36224 ft 505 kts 78°
2026-05-06 08:12 48.83937 -42.43567 36227 ft 505 kts 78°
2026-05-06 08:12 48.84748 -42.32933 36230 ft 505 kts 78°
2026-05-06 08:13 48.85543 -42.22375 36234 ft 506 kts 78°
2026-05-06 08:13 48.86336 -42.11706 36232 ft 506 kts 78°
2026-05-06 08:14 48.87114 -42.01107 36231 ft 507 kts 79°
2026-05-06 08:14 48.87889 -41.90422 36230 ft 508 kts 79°
2026-05-06 08:15 48.88648 -41.79801 36225 ft 508 kts 79°
2026-05-06 08:15 48.89404 -41.69089 36229 ft 509 kts 79°
2026-05-06 08:16 48.90148 -41.58412 36217 ft 510 kts 79°
2026-05-06 08:16 48.90887 -41.47654 36223 ft 510 kts 80°
2026-05-06 08:17 48.91610 -41.36981 36225 ft 510 kts 80°
2026-05-06 08:17 48.92331 -41.26186 36225 ft 511 kts 80°
2026-05-06 08:18 48.93038 -41.15447 36226 ft 511 kts 80°
2026-05-06 08:18 48.93733 -41.04738 36221 ft 511 kts 81°
2026-05-06 08:19 48.94424 -40.93947 36224 ft 511 kts 81°
2026-05-06 08:19 48.95100 -40.83222 36221 ft 511 kts 81°
2026-05-06 08:20 48.95658 -40.74232 36221 ft 512 kts 81°
2026-05-06 08:20 48.96320 -40.63426 36218 ft 512 kts 81°
2026-05-06 08:21 48.96968 -40.52694 36220 ft 512 kts 81°
2026-05-06 08:21 48.97609 -40.41884 36218 ft 512 kts 82°
2026-05-06 08:22 48.98237 -40.31145 36216 ft 512 kts 82°
2026-05-06 08:22 48.98859 -40.20330 36215 ft 512 kts 82°
2026-05-06 08:23 48.99469 -40.09549 36214 ft 513 kts 82°
2026-05-06 08:23 49.00164 -39.98725 36217 ft 511 kts 78°
2026-05-06 08:24 49.01614 -39.88146 36216 ft 508 kts 73°
2026-05-06 08:24 49.03186 -39.77687 36217 ft 509 kts 73°
2026-05-06 08:25 49.04732 -39.67186 36213 ft 510 kts 74°
2026-05-06 08:25 49.06250 -39.56585 36211 ft 510 kts 75°
2026-05-06 08:26 49.07735 -39.46054 36208 ft 510 kts 75°
2026-05-06 08:26 49.09220 -39.35445 36208 ft 510 kts 75°
2026-05-06 08:27 49.10689 -39.24890 36205 ft 510 kts 75°
2026-05-06 08:27 49.12156 -39.14282 36200 ft 510 kts 75°
2026-05-06 08:28 49.13616 -39.03653 36201 ft 510 kts 75°
2026-05-06 08:28 49.15051 -38.93124 36199 ft 510 kts 75°
2026-05-06 08:29 49.16488 -38.82505 36197 ft 509 kts 76°
2026-05-06 08:29 49.17907 -38.71941 36198 ft 509 kts 76°
2026-05-06 08:30 49.19325 -38.61303 36197 ft 509 kts 76°
2026-05-06 08:30 49.20722 -38.50747 36190 ft 508 kts 76°
2026-05-06 08:31 49.22120 -38.40109 36189 ft 508 kts 76°
2026-05-06 08:31 49.23497 -38.29541 36189 ft 508 kts 76°
2026-05-06 08:32 49.24875 -38.18889 36194 ft 508 kts 77°
2026-05-06 08:32 49.26233 -38.08312 36187 ft 508 kts 77°
2026-05-06 08:33 49.27584 -37.97708 36186 ft 509 kts 77°
2026-05-06 08:33 49.28934 -37.87035 36184 ft 509 kts 77°
2026-05-06 08:34 49.30929 -37.71091 36181 ft 509 kts 77°
2026-05-06 08:35 49.32254 -37.60404 36180 ft 509 kts 77°
2026-05-06 08:35 49.33562 -37.49764 36179 ft 509 kts 77°
2026-05-06 08:36 49.34860 -37.39125 36179 ft 509 kts 78°
2026-05-06 08:36 49.36157 -37.28410 36181 ft 509 kts 78°
2026-05-06 08:37 49.37435 -37.17759 36178 ft 509 kts 78°
2026-05-06 08:37 49.38712 -37.07032 36178 ft 509 kts 78°
2026-05-06 08:38 49.39972 -36.96357 36178 ft 509 kts 78°
2026-05-06 08:38 49.41221 -36.85688 36177 ft 509 kts 78°
2026-05-06 08:39 49.42468 -36.74943 36172 ft 509 kts 78°
2026-05-06 08:39 49.43694 -36.64287 36175 ft 509 kts 78°
2026-05-06 08:40 49.44918 -36.53565 36175 ft 509 kts 79°
2026-05-06 08:40 49.46133 -36.42826 36175 ft 509 kts 79°
2026-05-06 08:41 49.47330 -36.32157 36179 ft 509 kts 79°
2026-05-06 08:41 49.48523 -36.21419 36180 ft 508 kts 79°
2026-05-06 08:42 49.49708 -36.10669 36174 ft 508 kts 79°
2026-05-06 08:42 49.50874 -35.99991 36177 ft 508 kts 79°
2026-05-06 08:43 49.52032 -35.89296 36175 ft 508 kts 79°
2026-05-06 08:43 49.53185 -35.78555 36176 ft 508 kts 79°
2026-05-06 08:44 49.54329 -35.67790 36177 ft 508 kts 79°
2026-05-06 08:44 49.55454 -35.57112 36176 ft 507 kts 79°
2026-05-06 08:45 49.56570 -35.46416 36179 ft 507 kts 80°
2026-05-06 08:45 49.57681 -35.35673 36176 ft 507 kts 80°
2026-05-06 08:46 49.58775 -35.24989 36180 ft 507 kts 80°
2026-05-06 08:46 49.59867 -35.14224 36177 ft 506 kts 80°
2026-05-06 08:47 49.60947 -35.03471 36176 ft 506 kts 80°
2026-05-06 08:47 49.62013 -34.92763 36175 ft 506 kts 80°
2026-05-06 08:48 49.63070 -34.82035 36175 ft 506 kts 81°
2026-05-06 08:48 49.64113 -34.71342 36173 ft 505 kts 81°
2026-05-06 08:49 49.65149 -34.60622 36170 ft 505 kts 81°
2026-05-06 08:49 49.66171 -34.49936 36174 ft 505 kts 81°
2026-05-06 08:50 49.67189 -34.39189 36160 ft 505 kts 81°
2026-05-06 08:50 49.68193 -34.28471 36170 ft 505 kts 81°
2026-05-06 08:51 49.69184 -34.17792 36170 ft 504 kts 81°
2026-05-06 08:51 49.70172 -34.07035 36169 ft 504 kts 81°
2026-05-06 08:52 49.71145 -33.96318 36165 ft 504 kts 82°
2026-05-06 08:52 49.72107 -33.85614 36163 ft 504 kts 82°
2026-05-06 08:53 49.73064 -33.74859 36160 ft 504 kts 82°
2026-05-06 08:53 49.74011 -33.64096 36159 ft 504 kts 82°
2026-05-06 08:54 49.74942 -33.53396 36161 ft 504 kts 82°
2026-05-06 08:54 49.75868 -33.42633 36157 ft 503 kts 82°
2026-05-06 08:55 49.76779 -33.31924 36155 ft 503 kts 82°
2026-05-06 08:55 49.77679 -33.21227 36151 ft 503 kts 82°
2026-05-06 08:56 49.78577 -33.10433 36150 ft 503 kts 83°
2026-05-06 08:56 49.79456 -32.99743 36149 ft 503 kts 83°
2026-05-06 08:57 49.80330 -32.88989 36144 ft 503 kts 83°
2026-05-06 08:57 49.81189 -32.78299 36143 ft 503 kts 83°
2026-05-06 08:58 49.82043 -32.67546 36142 ft 503 kts 83°
2026-05-06 08:58 49.82888 -32.56763 36138 ft 503 kts 83°
2026-05-06 08:59 49.83717 -32.46063 36134 ft 503 kts 83°
2026-05-06 08:59 49.84544 -32.35265 36131 ft 503 kts 83°
2026-05-06 09:00 49.85353 -32.24559 36131 ft 503 kts 84°
2026-05-06 09:00 49.86159 -32.13754 36132 ft 503 kts 84°
2026-05-06 09:01 49.86954 -32.02958 36124 ft 503 kts 84°
2026-05-06 09:01 49.87735 -31.92221 36119 ft 503 kts 84°
2026-05-06 09:02 49.88508 -31.81452 36117 ft 504 kts 84°
2026-05-06 09:02 49.89273 -31.70646 36118 ft 504 kts 84°
2026-05-06 09:03 49.90027 -31.59850 36119 ft 504 kts 84°
2026-05-06 09:03 49.90775 -31.49001 36110 ft 504 kts 84°
2026-05-06 09:04 49.91507 -31.38237 36106 ft 505 kts 84°
2026-05-06 09:04 49.92234 -31.27390 36102 ft 505 kts 85°
2026-05-06 09:05 49.92951 -31.16533 36096 ft 505 kts 85°
2026-05-06 09:05 49.93654 -31.05742 36096 ft 505 kts 85°
2026-05-06 09:06 49.94351 -30.94881 36085 ft 505 kts 85°
2026-05-06 09:06 49.95034 -30.84070 36087 ft 505 kts 85°
2026-05-06 09:07 49.95711 -30.73191 36089 ft 505 kts 85°
2026-05-06 09:07 49.96375 -30.62366 36079 ft 505 kts 85°
2026-05-06 09:08 49.97028 -30.51545 36073 ft 505 kts 85°
2026-05-06 09:08 49.97676 -30.40646 36073 ft 505 kts 85°
2026-05-06 09:09 49.98308 -30.29832 36073 ft 505 kts 85°
2026-05-06 09:09 49.98933 -30.18970 36068 ft 505 kts 86°
2026-05-06 09:10 49.99553 -30.08035 36060 ft 506 kts 86°
2026-05-06 09:10 50.00330 -29.97219 36059 ft 506 kts 79°
2026-05-06 09:11 50.01590 -29.88286 36061 ft 506 kts 77°
2026-05-06 09:11 50.03196 -29.77577 36051 ft 507 kts 77°
2026-05-06 09:12 50.04762 -29.66930 36049 ft 507 kts 78°
2026-05-06 09:12 50.06297 -29.56202 36046 ft 508 kts 78°
2026-05-06 09:13 50.07803 -29.45511 36045 ft 508 kts 78°
2026-05-06 09:13 50.09307 -29.34753 36043 ft 507 kts 78°
2026-05-06 09:14 50.10793 -29.24060 36036 ft 507 kts 78°
2026-05-06 09:14 50.12280 -29.13291 36036 ft 507 kts 78°
2026-05-06 09:15 50.13753 -29.02541 36038 ft 506 kts 78°
2026-05-06 09:15 50.15208 -28.91847 36037 ft 506 kts 78°
2026-05-06 09:16 50.16663 -28.81074 36040 ft 506 kts 78°
2026-05-06 09:16 50.18096 -28.70388 36041 ft 505 kts 78°
2026-05-06 09:17 50.19528 -28.59625 36045 ft 505 kts 78°
2026-05-06 09:17 50.20939 -28.48935 36043 ft 505 kts 78°
2026-05-06 09:18 50.22351 -28.38161 36048 ft 504 kts 79°
2026-05-06 09:18 50.23740 -28.27482 36044 ft 504 kts 79°
2026-05-06 09:19 50.25119 -28.16792 36055 ft 503 kts 79°
2026-05-06 09:19 50.26499 -28.06026 36048 ft 504 kts 79°
2026-05-06 09:20 50.27859 -27.95321 36049 ft 503 kts 79°
2026-05-06 09:20 50.29214 -27.84568 36053 ft 502 kts 79°
2026-05-06 09:21 50.30548 -27.73907 36058 ft 501 kts 79°
2026-05-06 09:21 50.31875 -27.63207 36070 ft 500 kts 79°
2026-05-06 09:22 50.33185 -27.52574 36063 ft 499 kts 79°
2026-05-06 09:22 50.34494 -27.41856 36068 ft 498 kts 79°
2026-05-06 09:23 50.35778 -27.31252 36073 ft 498 kts 79°
2026-05-06 09:23 50.37061 -27.20584 36073 ft 497 kts 79°
2026-05-06 09:24 50.38323 -27.09990 36081 ft 496 kts 79°
2026-05-06 09:24 50.39583 -26.99337 36079 ft 496 kts 80°
2026-05-06 09:25 50.40833 -26.88673 36087 ft 495 kts 80°
2026-05-06 09:25 50.42063 -26.78095 36089 ft 495 kts 80°
2026-05-06 09:26 50.43292 -26.67439 36092 ft 495 kts 80°
2026-05-06 09:26 50.44498 -26.56891 36091 ft 494 kts 80°
2026-05-06 09:27 50.45705 -26.46244 36095 ft 494 kts 80°
2026-05-06 09:27 50.46899 -26.35621 36100 ft 493 kts 81°
2026-05-06 09:28 50.48077 -26.25052 36103 ft 493 kts 81°
2026-05-06 09:28 50.49250 -26.14433 36103 ft 492 kts 81°
2026-05-06 09:29 50.50406 -26.03882 36109 ft 492 kts 81°
2026-05-06 09:29 50.51552 -25.93320 36108 ft 492 kts 81°
2026-05-06 09:30 50.52694 -25.82709 36114 ft 491 kts 81°
2026-05-06 09:30 50.53825 -25.72101 36114 ft 491 kts 81°
2026-05-06 09:31 50.54939 -25.61565 36122 ft 491 kts 81°
2026-05-06 09:31 50.56049 -25.50967 36123 ft 490 kts 81°
2026-05-06 09:32 50.57143 -25.40422 36122 ft 490 kts 81°
2026-05-06 09:32 50.58232 -25.29837 36121 ft 489 kts 82°
2026-05-06 09:33 50.59307 -25.19284 36127 ft 489 kts 82°
2026-05-06 09:33 50.60376 -25.08690 36129 ft 488 kts 82°
2026-05-06 09:34 50.61425 -24.98199 36126 ft 487 kts 82°
2026-05-06 09:34 50.62471 -24.87635 36128 ft 486 kts 82°
2026-05-06 09:35 50.63499 -24.77148 36132 ft 486 kts 82°
2026-05-06 09:35 50.64524 -24.66595 36134 ft 485 kts 82°
2026-05-06 09:36 50.65530 -24.56138 36134 ft 485 kts 82°
2026-05-06 09:36 50.66533 -24.45609 36135 ft 485 kts 82°
2026-05-06 09:37 50.67523 -24.35117 36136 ft 484 kts 82°
2026-05-06 09:37 50.68504 -24.24605 36136 ft 484 kts 82°
2026-05-06 09:38 50.69478 -24.14077 36138 ft 484 kts 82°
2026-05-06 09:38 50.70436 -24.03600 36139 ft 484 kts 82°
2026-05-06 09:39 50.71391 -23.93064 36139 ft 484 kts 82°
2026-05-06 09:39 50.72334 -23.82542 36137 ft 484 kts 82°
2026-05-06 09:40 50.73263 -23.72067 36138 ft 484 kts 82°
2026-05-06 09:40 50.74640 -23.56334 36140 ft 483 kts 82°
2026-05-06 09:41 50.75550 -23.45801 36141 ft 482 kts 82°
2026-05-06 09:41 50.76442 -23.35365 36140 ft 482 kts 82°
2026-05-06 09:42 50.77330 -23.24849 36140 ft 481 kts 82°
2026-05-06 09:42 50.78203 -23.14405 36139 ft 481 kts 83°
2026-05-06 09:43 50.79071 -23.03911 36137 ft 481 kts 83°
2026-05-06 09:43 50.79932 -22.93379 36140 ft 481 kts 83°
2026-05-06 09:44 50.80776 -22.82928 36138 ft 482 kts 83°
2026-05-06 09:44 50.81619 -22.72371 36140 ft 482 kts 83°
2026-05-06 09:45 50.82448 -22.61875 36136 ft 483 kts 83°
2026-05-06 09:45 50.83272 -22.51316 36136 ft 483 kts 83°
2026-05-06 09:46 50.84081 -22.40820 36137 ft 483 kts 83°
2026-05-06 09:46 50.84890 -22.30206 36137 ft 483 kts 83°
2026-05-06 09:47 50.85680 -22.19700 36133 ft 483 kts 83°
2026-05-06 09:47 50.86466 -22.09123 36136 ft 482 kts 83°
2026-05-06 09:48 50.87237 -21.98612 36132 ft 482 kts 83°
2026-05-06 09:48 50.88000 -21.88095 36133 ft 481 kts 83°
2026-05-06 09:49 50.88755 -21.77541 36132 ft 481 kts 83°
2026-05-06 09:49 50.89498 -21.67020 36134 ft 480 kts 83°
2026-05-06 09:50 50.90227 -21.56551 36133 ft 480 kts 83°
2026-05-06 09:50 50.90950 -21.46038 36134 ft 480 kts 83°
2026-05-06 09:51 50.91664 -21.35520 36135 ft 480 kts 83°
2026-05-06 09:51 50.92366 -21.25045 36133 ft 479 kts 83°
2026-05-06 09:52 50.93058 -21.14561 36134 ft 479 kts 83°
2026-05-06 09:52 50.93744 -21.04018 36132 ft 479 kts 83°
2026-05-06 09:53 50.94416 -20.93550 36132 ft 479 kts 83°
2026-05-06 09:53 50.95082 -20.83033 36130 ft 478 kts 83°
2026-05-06 09:54 50.95735 -20.72561 36131 ft 478 kts 83°
2026-05-06 09:54 50.96380 -20.62072 36132 ft 478 kts 83°
2026-05-06 09:55 50.97015 -20.51575 36129 ft 478 kts 83°
2026-05-06 09:55 50.97639 -20.41114 36129 ft 477 kts 83°
2026-05-06 09:56 50.98256 -20.30611 36124 ft 477 kts 83°
2026-05-06 09:56 50.98861 -20.20154 36124 ft 477 kts 83°
2026-05-06 09:57 50.99460 -20.09637 36123 ft 477 kts 83°
2026-05-06 09:57 51.00031 -19.99205 36125 ft 477 kts 84°
2026-05-06 09:58 51.00302 -19.88649 36120 ft 477 kts 86°